sat.trackr.live / text

‹ back to catalog

STARLINK-33681

NORAD 63438 · 2025-069F

PAYLOAD ACTIVE UNKNOWN

§ Identity

Operator
Country
US
Launch date
2025-04-04
Launch site
AFWTR
Launch vehicle
Mass (kg)
RCS (m²)

Purposes: comms

External: N2YO · Heavens-Above · Gunter

§ Orbital elements

Epoch: 2026-09-20T10:01:17.022432Z

Period
93.85 min
Inclination
53.1593°
Eccentricity
0.0001016
Mean motion
15.34405674 rev/d
Perigee alt
462.0 km
Apogee alt
463.4 km
Semi-major
6,840.8 km
B*
3.4846e-4
RAAN
308.3705°
Arg perigee
84.5710°
Mean anomaly
275.5409°
Rev number
8,334

§ Raw data

STARLINK-336811 63438U 25069F   26263.41755813  .00011417  00000+0  34846-3 0  99902 63438  53.1593 308.3705 0001016  84.5710 275.5409 15.34405674 83340

JSON: /api/v1/satellites/63438 · /tle

For live sub-satellite position, see the globe view (requires WebGL).

§ Visibility from observer

Set your observer location to see the next 7 days of passes ≥ 10°. The values pass through the URL so the page stays shareable.

No JS? Fill the form by hand. The geolocation button needs JavaScript.